CW5066 Weather Reports


time (UTC)temp
C
wind
direction
speed
KPH
gust
KPH
rain 1hr
cm
rain 24hr
cm
rain mn
cm
humidity
%
barometer
mb
20260831205516 18 90 3.2 14.5 0.00 0.00 0.00 46 1030.9
20260831204516 18 113 8.0 22.5 0.00 0.00 0.00 45 1030.2
20260831203536 18 113 6.4 17.7 0.00 0.00 0.00 45 1030.3
20260831202516 17 158 6.4 17.7 0.00 0.00 0.00 43 1030.6
20260831201516 18 158 6.4 12.9 0.00 0.00 0.00 44 1030.7
20260831200516 18 113 11.3 19.3 0.00 0.10 0.00 41 1031.4
20260831195516 20 180 6.4 14.5 0.00 0.18 0.00 39 1032.2
20260831194516 19 0.0 3.2 0.00 0.20 0.00 38 1031.7
20260831193516 18 158 6.4 19.3 0.00 0.20 0.00 39 1031.1
20260831192516 18 180 3.2 12.9 0.00 0.20 0.00 39 1031.2
20260831191515 18 180 6.4 16.1 0.00 0.20 0.00 40 1030.8
20260831190515 18 113 3.2 14.5 0.00 0.20 0.00 41 1031.6
20260831185536 18 90 1.6 6.4 0.00 0.20 0.00 41 1031.7
20260831184536 18 158 1.6 11.3 0.00 0.20 0.00 39 1031.6
20260831183516 18 113 1.6 8.0 0.00 0.20 0.00 39 1031.8
20260831182516 17 113 1.6 4.8 0.00 0.20 0.00 41 1031.2
20260831181515 17 158 4.8 11.3 0.00 0.20 0.00 42 1031.2
20260831180556 17 135 3.2 9.7 0.00 0.20 0.00 43 1031.3
20260831175515 17 135 3.2 12.9 0.00 0.20 0.00 41 1031.3
20260831174515 17 113 1.6 4.8 0.00 0.20 0.00 45 1031.4
20260831173535 17 113 3.2 11.3 0.00 0.20 0.00 42 1031.3
20260831172515 17 225 3.2 8.0 0.00 0.20 0.00 43 1031.4
20260831171515 16 113 1.6 6.4 0.00 0.20 0.00 42 1030.8
20260831170515 16 225 3.2 11.3 0.00 0.20 0.00 41 1031.3
20260831165515 16 338 3.2 6.4 0.00 0.20 0.00 44 1031.4
20260831164555 16 248 1.6 4.8 0.00 0.20 0.00 44 1031.2
20260831163535 16 180 3.2 8.0 0.00 0.20 0.00 43 1031.7
20260831162517 16 225 3.2 6.4 0.00 0.20 0.00 45 1031.8
20260831161517 15 203 4.8 11.3 0.00 0.20 0.00 47 1031.1
20260831160517 15 158 3.2 9.7 0.00 0.20 0.00 49 1030.9
20260831155517 15 180 3.2 6.4 0.00 0.20 0.00 48 1030.9
20260831154517 15 225 1.6 4.8 0.00 0.20 0.00 50 1031.0
20260831153517 15 225 1.6 3.2 0.00 0.20 0.00 48 1031.0
20260831152517 15 158 1.6 4.8 0.00 0.20 0.00 50 1030.9
20260831151517 14 0.0 1.6 0.00 0.20 0.00 54 1030.6
20260831150517 13 0.0 3.2 0.00 0.20 0.00 52 1030.5
20260831145517 13 0.0 0.0 0.00 0.20 0.00 52 1030.6
20260831144517 13 0.0 1.6 0.00 0.20 0.00 53 1030.0
20260831143517 13 203 1.6 3.2 0.00 0.20 0.00 52 1030.6
20260831142517 13 225 1.6 3.2 0.00 0.20 0.00 53 1030.5
20260831141517 13 0.0 3.2 0.00 0.20 0.00 52 1030.5
20260831140517 13 0.0 0.0 0.00 0.20 0.00 52 1030.3
20260831135637 12 158 1.6 3.2 0.00 0.20 0.00 52 1030.2
20260831134517 12 0.0 3.2 0.00 0.20 0.00 53 1030.0
20260831133517 12 0.0 3.2 0.00 0.20 0.00 53 1029.8
20260831132516 12 315 1.6 3.2 0.00 0.20 0.00 54 1029.9
20260831131516 12 0.0 0.0 0.00 0.20 0.00 54 1029.8
20260831130517 12 0.0 0.0 0.00 0.20 0.00 54 1029.8
20260831125517 12 0.0 0.0 0.00 0.20 0.00 54 1029.7
20260831124518 12 0.0 1.6 0.00 0.20 0.00 54 1029.5
20260831123517 12 0.0 0.0 0.00 0.20 0.00 54 1029.9
20260831122536 12 0.0 1.6 0.00 0.20 0.00 54 1029.8
20260831121537 12 0.0 0.0 0.00 0.20 0.00 54 1029.7
20260831120517 12 180 1.6 3.2 0.00 0.20 0.00 54 1029.7
20260831115516 11 0.0 3.2 0.00 0.20 0.00 56 1029.4
20260831114516 11 90 1.6 3.2 0.00 0.20 0.00 56 1029.3
20260831113516 11 0 1.6 1.6 0.00 0.20 0.00 57 1029.5
20260831112516 11 0.0 1.6 0.00 0.20 0.00 57 1029.4
20260831111517 11 0.0 1.6 0.00 0.20 0.00 58 1029.2
20260831110516 11 68 1.6 1.6 0.00 0.20 0.00 59 1028.6
20260831105516 11 68 3.2 3.2 0.00 0.20 0.00 60 1028.7
20260831104517 11 68 1.6 3.2 0.00 0.20 0.00 60 1028.6
20260831103516 11 113 1.6 4.8 0.00 0.20 0.00 61 1027.2
20260831102516 11 90 1.6 3.2 0.00 0.20 0.00 61 1026.8
20260831101516 11 158 1.6 4.8 0.00 0.20 0.00 60 1026.6
20260831100556 11 90 1.6 3.2 0.00 0.20 0.00 61 1026.1
20260831095516 10 113 1.6 3.2 0.00 0.20 0.00 61 1025.8
20260831094516 11 0.0 1.6 0.00 0.20 0.00 61 1025.8
20260831093556 11 180 1.6 4.8 0.00 0.20 0.00 61 1024.6
20260831092516 10 68 1.6 4.8 0.00 0.20 0.00 61 1024.4
20260831091516 11 0.0 3.2 0.00 0.20 0.00 61 1025.0
20260831090516 11 225 1.6 4.8 0.00 0.20 0.00 60 1023.9
20260831085536 11 158 3.2 6.4 0.00 0.20 0.00 61 1023.9
20260831084516 11 180 3.2 6.4 0.00 0.20 0.00 61 1023.9
20260831083516 11 180 4.8 9.7 0.00 0.20 0.00 62 1023.4
20260831082536 11 180 3.2 6.4 0.00 0.20 0.00 62 1023.4
20260831081516 11 225 3.2 4.8 0.00 0.20 0.00 62 1023.5
20260831080536 11 248 3.2 6.4 0.00 0.20 0.00 61 1026.7
20260831075516 11 225 3.2 4.8 0.00 0.20 0.00 60 1026.9
20260831074516 11 0.0 4.8 0.00 0.20 0.00 61 1027.0
20260831073516 11 270 1.6 3.2 0.00 0.20 0.00 61 1028.4
20260831072516 11 225 3.2 4.8 0.00 0.20 0.00 62 1028.4
20260831071516 10 225 4.8 8.0 0.00 0.20 0.00 64 1028.4
20260831070516 10 203 4.8 6.4 0.00 0.20 0.00 63 1029.0
20260831065516 11 203 4.8 6.4 0.00 0.20 0.00 63 1028.9
20260831064515 10 180 3.2 4.8 0.00 0.20 0.00 64 1029.0
20260831063515 10 135 1.6 4.8 0.00 0.20 0.00 66 1029.1
20260831062515 10 135 3.2 4.8 0.00 0.20 0.00 68 1028.6
20260831061515 10 270 1.6 6.4 0.00 0.20 0.00 67 1029.0
20260831060516 10 203 1.6 3.2 0.00 0.20 0.00 67 1029.1
20260831055516 10 248 3.2 4.8 0.00 0.20 0.20 66 1029.2
20260831054516 10 225 1.6 4.8 0.00 0.20 0.20 68 1029.4
20260831053516 10 225 3.2 9.7 0.00 0.20 0.20 68 1029.5
20260831052516 10 225 4.8 9.7 0.00 0.20 0.20 69 1029.6
20260831051516 10 225 9.7 19.3 0.00 0.20 0.20 70 1029.7
20260831050516 11 203 6.4 12.9 0.00 0.20 0.20 70 1029.5
20260831045516 11 225 4.8 14.5 0.00 0.20 0.20 68 1029.5
20260831044516 11 225 12.9 22.5 0.00 0.20 0.20 67 1030.6
20260831043516 11 270 8.0 19.3 0.00 0.20 0.20 66 1030.2
20260831042516 12 270 6.4 16.1 0.00 0.20 0.20 64 1030.2
20260831041516 12 248 6.4 14.5 0.00 0.20 0.20 58 1029.9
20260831040516 12 248 4.8 14.5 0.00 0.20 0.20 58 1029.0
20260831035516 12 248 4.8 9.7 0.00 0.20 0.20 58 1028.1
20260831034516 12 225 3.2 8.0 0.00 0.20 0.20 59 1027.9
20260831033516 12 225 3.2 4.8 0.00 0.20 0.20 57 1027.8
20260831032516 12 203 3.2 6.4 0.00 0.20 0.20 58 1028.0
20260831031516 12 180 1.6 4.8 0.00 0.20 0.20 57 1028.0
20260831030515 12 0.0 3.2 0.00 0.20 0.20 57 1027.9
20260831025516 12 180 1.6 6.4 0.00 0.20 0.20 57 1027.7
20260831024516 12 135 1.6 3.2 0.00 0.20 0.20 57 1027.5
20260831023515 13 0.0 3.2 0.00 0.20 0.20 57 1027.6
20260831022536 13 225 3.2 6.4 0.00 0.20 0.20 56 1028.0
20260831021515 13 225 4.8 6.4 0.00 0.20 0.20 56 1027.6
20260831020515 13 225 4.8 9.7 0.00 0.20 0.20 57 1026.8
20260831015515 13 248 4.8 9.7 0.00 0.20 0.20 56 1026.7
20260831014535 13 225 4.8 9.7 0.00 0.20 0.20 56 1026.8
20260831013515 13 225 4.8 9.7 0.00 0.20 0.20 55 1027.6
20260831012516 13 248 6.4 16.1 0.00 0.20 0.20 54 1027.6
20260831011515 14 225 9.7 19.3 0.00 0.20 0.20 53 1027.8
20260831010515 14 225 11.3 24.1 0.00 0.20 0.20 53 1027.4
20260831005536 14 225 14.5 29.0 0.00 0.20 0.20 52 1027.3
20260831004515 14 203 16.1 27.4 0.00 0.20 0.20 51 1027.4
20260831003535 15 225 19.3 30.6 0.00 0.20 0.20 51 1027.4
20260831002516 15 225 16.1 25.7 0.00 0.20 0.20 50 1028.0
20260831001515 15 225 16.1 35.4 0.00 0.20 0.20 49 1028.1
20260831000515 15 225 17.7 29.0 0.00 0.20 0.20 48 1029.3
20260830235515 15 225 22.5 40.2 0.00 0.20 0.20 48 1029.3
20260830234517 15 225 25.7 37.0 0.00 0.20 0.20 47 1029.0
20260830233517 16 225 27.4 46.7 0.00 0.20 0.20 46 1027.5
20260830232517 16 225 27.4 43.5 0.00 0.20 0.20 45 1027.6
20260830231517 16 225 22.5 35.4 0.00 0.20 0.20 45 1027.4
20260830230517 16 225 22.5 37.0 0.00 0.20 0.20 47 1027.0
20260830225517 16 225 25.7 46.7 0.00 0.20 0.20 47 1026.8
20260830224517 15 225 24.1 35.4 0.00 0.20 0.20 50 1026.9
20260830223517 15 225 24.1 38.6 0.00 0.20 0.20 51 1026.8
20260830222517 14 225 25.7 41.8 0.00 0.20 0.20 54 1027.0
20260830221517 13 225 24.1 43.5 0.00 0.20 0.20 56 1026.3
20260830220517 13 225 27.4 41.8 0.00 0.20 0.20 58 1026.6
20260830215517 13 225 25.7 43.5 0.00 0.20 0.20 58 1025.8
20260830214517 12 225 29.0 45.1 0.00 0.20 0.20 59 1025.9
20260830213517 12 225 17.7 30.6 0.00 0.20 0.20 63 1026.3
20260830212517 12 225 11.3 25.7 0.00 0.20 0.20 73 1026.8
20260830211517 11 203 8.0 17.7 0.00 0.20 0.20 73 1025.9
20260830210516 11 225 16.1 33.8 0.10 0.20 0.20 74 1026.0